Location: Cazarilh
(42.9578°N, 0.5819°E)
Time: 05:01:44
(UTC+00:00)

PSLV R/B - Pass Details

Date: 11 December 2019
Orbit: 504 x 580 km, 97.8° (Epoch: 22 January)

Event Time Altitude Azimuth Distance (km) Brightness Sun altitude
Rises 05:09:08 0° 11° (N) 2,797 7.4 -22.8°
Reaches altitude 10° 05:11:17 10° 10° (N) 1,899 6.5 -22.4°
Maximum altitude 05:15:25 79° 284° (WNW) 597 3.7 -21.7°
Drops below altitude 10° 05:19:31 10° 198° (SSW) 1,889 6.5 -20.9°
Sets 05:21:39 0° 197° (SSW) 2,780 7.4 -20.6°
